Regional Weather Roundup
Issued by NWS

Home | Current Version | Previous Version | Graphics & Text | Print | Product List | Glossary On
Versions: 1 2 3 4 5 6 7 8 9 10 11 12 13 14 15 16 17 18 19 20 21 22 23 24 25 26 27 28 29 30 31 32 33 34 35 36 37 38 39 40 41 42 43 44 45 46 47 48 49 50
000
ASUS45 KBOU 030107
RWRCO

WEATHER ROUNDUP FOR COLORADO
NATIONAL WEATHER SERVICE DENVER/BOULDER CO
700 PM MDT SAT MAY 02 2015

NOTE: "FAIR" INDICATES FEW OR NO CLOUDS BELOW 12000 FEET WITH NO
SIGNIFICANT WEATHER AND/OR OBSTRUCTIONS TO VISIBILITY.

COZ001>005-013-030-031-030200-
...NORTHWEST COLORADO...

CITY           SKY/WX    TMP DP  RH WIND       PRES   REMARKS
CRAIG          CLOUDY    60  36  40 NE12G17   30.03F
HAYDEN         CLOUDY    55  39  54 SE10      30.05F
MEEKER         CLOUDY    60  36  40 SE10      30.00F
MOUNT WERNER   NOT AVBL
STEAMBOAT SPGS CLOUDY    54  37  53 CALM      30.07S
WALDEN         CLOUDY    43  36  75 S3        30.12S
$$

COZ006>008-011-030200-
...WEST CENTRAL VALLEYS...

CITY           SKY/WX    TMP DP  RH WIND       PRES   REMARKS
GRAND JUNCTION PTSUNNY   76  26  15 W13       29.84F
MONTROSE       PTSUNNY   74  24  15 VRB3      29.93F
EAGLE          PTSUNNY   64  34  32 NW12      30.04S
RIFLE          PTSUNNY   70  32  24 N10G22    29.95R
DELTA          PTSUNNY   80  23  12 SW20G28   29.88F
NUCLA          PTSUNNY   73  19  13 SW6       29.97F
$$

COZ017>023-064>068-030200-
...SOUTHWEST COLORADO...

CITY           SKY/WX    TMP DP  RH WIND       PRES   REMARKS
DURANGO        CLOUDY    68  25  19 SW13G23   30.01F
CORTEZ         MOSUNNY   75  27  17 S17       29.96S
PAGOSA SPRINGS CLOUDY    63  25  23 SE5       30.10F
TELLURIDE      CLOUDY    57  23  26 S8        30.18F
WOLF CREEK PAS NOT AVBL
$$

COZ009-010-012-014-032>034-037-058>063-030200-
...CENTRAL COLORADO...

CITY           SKY/WX    TMP DP  RH WIND       PRES   REMARKS
ASPEN          LGT RAIN  55  30  38 NW9G17    30.09F
BUENA VISTA    NOT AVBL
COPPER MTN     CLOUDY    43  27  52 SW8G17    30.31S
BERTHOUD PASS  MOCLDY    32  27  80 W17G28    30.32S WCI  21
COTTONWOOD PAS PTSUNNY   54  23  30 SW3       30.19F
GUNNISON       MOSUNNY   61  27  27 CALM      30.09F
KREMMLING      CLOUDY    54  32  43 NW9       30.10S
LEADVILLE      CLOUDY    47  29  49 VRB5      30.19F
MONARCH PASS   PTSUNNY   41  28  60 W15       30.41S
SALIDA         MOCLDY    60  33  37 S13G23    30.15S
SUNLIGHT       CLOUDY    46  28  49 CALM      30.26S
WILKERSON PASS CLOUDY    43  23  45 W8        30.29F
$$

COZ069>075-030200-
...SAN LUIS VALLEY/SANGRE DE CRISTO MOUNTAINS...

CITY           SKY/WX    TMP DP  RH WIND       PRES   REMARKS
ALAMOSA        CLOUDY    54  38  54 S9        30.12F
LA VETA PASS   CLOUDY    43  32  65 MISG      30.21F
SAGUACHE       MOCLDY    54  36  50 SE8       30.13F
$$

COZ035-036-038>040-030200-
...NORTHERN COLORADO FRONT RANGE...

CITY           SKY/WX    TMP DP  RH WIND       PRES   REMARKS
DENVER INTL AP CLOUDY    62  39  42 NE15      29.98R
DMNS CITY PARK   N/A     64  36  35 NE20      29.97R
AURORA         MOCLDY    65  40  39 N23G35    29.99R
FRONT RANGE AP MOCLDY    64  39  39 N20G29    29.99R
ERIE MUNI ARPT CLOUDY    63  38  40 N14G20    29.94R
BOULDER MUN AP CLOUDY    61  37  41 N9        29.93S
CENTENNIAL     MOCLDY    64  42  44 E7        29.97R
BROOMFIELD     MOCLDY    64  36  34 VRB13     29.96
FORT COLLINS   CLOUDY    61  37  41 NW9G18    29.96F
LONGMONT       CLOUDY    64  39  40 N9        29.95S
$$

COZ041-046-047-076>085-087-088-030200-
...PIKES PEAK/PALMER DIVIDE AND SOUTHERN FOOTHILLS...

CITY           SKY/WX    TMP DP  RH WIND       PRES   REMARKS
COLO. SPRINGS  MOCLDY    62  40  44 E10       30.00R
A. F. ACADEMY  MOCLDY    62  34  34 SE6       30.01R
ELLICOTT       MOCLDY   N/A N/A N/A SE12      29.99S
FALCON         MOCLDY    59  36  41 SE10      30.04S
FORT CARSON    CLOUDY    61  42  49 E8        29.95F
LIMON          CLOUDY    64  41  42 S6        29.95F
MONUMENT HILL  MOCLDY    59  36  41 SE6       30.03S
TRINIDAD       CLOUDY    64  39  39 NW13      29.98S
$$

COZ042>045-048>051-090-091-030200-
...NORTHEAST COLORADO...

CITY           SKY/WX    TMP DP  RH WIND       PRES   REMARKS
GREELEY ARPT   CLOUDY    63  39  42 NW17      29.94R
AKRON          CLOUDY    65  40  39 N15       29.89R
BURLINGTON     CLOUDY    73  42  32 W8        29.86R
WRAY           CLOUDY    73  42  33 NW8       29.81S
STERLING       CLOUDY    63  50  63 W18       29.86R
HOLYOKE        NOT AVBL
FORT MORGAN    CLOUDY    60 -31   2 NW16      29.93R
$$

COZ086-089-092>099-030200-
...SOUTHEAST COLORADO...

CITY           SKY/WX    TMP DP  RH WIND       PRES   REMARKS
PUEBLO         CLOUDY    68  41  37 SE7       29.91F
LA JUNTA       CLOUDY    68  42  38 MISG      29.91R HAZE
LAMAR          CLOUDY    76  37  24 S21G26    29.79F
SPRINGFIELD      N/A     68  39  34 S8        29.89R
$$


USA.gov is the U.S. government's official web portal to all federal, state and local government web resources and services.